Find Starlink 3807

NORAD ID: 52353 Int'l Des: 2022-045 Owner: SPXS Country: US Constellation: starlink operational
LEOCIRCULAR

リアルタイム位置

3D地球を読み込み中...

Starlink 3807について

説明を読み込み中...

次回通過

Passes for default location (London). Set your location on the main map for personalized predictions.

高度履歴

Loading altitude history...

軌道要素

1 52353U 22045Y 26125.79154770 .00000329 00000-0 38758-4 0 9996
2 52353 53.2179 302.7822 0001262 95.5485 264.5651 15.08839536224407
Epoch: May 5, 2026 • Age: 17 hours

現在のステータス

高度 551.5 km
速度 7.59 km/s
衛星直下点 -35.15°S, 108.48°E
打ち上げ日 Apr 29, 2022
運用期間 4 years
タイプ internet

技術仕様

分類 Payload
質量 297.00 kg
乾燥質量 275.00 kg
総質量 297.00 kg
長さ 0.20 m
直径 2.80 m
スパン 9.00 m
形状 Box + pan
製造者 SPXS
バスタイプ Starlink
フェーズステータス In Orbit
所有者/国 SPXS/US

Most Searched